Погода в Гяндже

Погода в Гяндже : погода сейчас, прогноз погоды и архив. Всё, что Вы хотите узнать о погоде в Гяндже!

Поиск расширенной информации на нашем сайте:

Полезная информация: Карточки 16906 сайт автокранов.

Другие новости

Новости СМИ2

Главная страница сайта

Новости сайта

02.10.2013

Напоминаем, что на нашем новом сайте вы можете получить высокодетализированные прогнозы погоды по пунктам России, СНГ и мира (включающие важные для авиации метеовеличины, такие как направление и скорость ветра, видимость, явления погоды, количество и форма облачности, нижняя и верхняя граница облачности), а также ознакомиться с разнообразными материалами по авиационной метеорологии и подборкой полезных ссылок на эту тему.

Сайт Метеоцентр.Азия посвящён разработке технологий оптимизации авиаметеорологического обслуживания, включая проектирование и перспективное создание нескольких автоматизированных авиаметеорологических систем:
- система выпуска высокодетальных прогностических карт явлений погоды для нижнего воздушного пространства по России и ближнему зарубежью;
- система верификации прогнозов TAF (выпускаемых синоптиками официальных АМСГ РФ и ближнего зарубежья) и AUTOTAF (выпускаемых сайтом Метеоцентр.Азия) - выявление ошибок, онлайн-сопоставление с фактической погодой METAR, автоматическое внесение коррективов в прогнозы при резком отклонении фактической погоды от прогноза, подсчёт оправдываемости прогнозов по элементам и в целом;
- система обработки, анализа и отображения авиаметеорологической информации для применения провайдерами метеорологической информации.

Рекомендуем: Высказывания Мастеров восточных единоборств.

Погода в Гяндже - сегодня

Время (UTC), дата Ветер
(°,м/с) 
Видим.   Явления Облачность Т
(°С)
Тd
(°С)
f(%) Тe
(°С)
Pmin
(гПа)
dP
(гПа)
Po
(мм)
O2
(г/м3)
Тmin Tmax R s Состояние
почвы
15 24.04.17 320 (СЗ) 20000 м    9/9 1000 м 
[Sc]
+17.2 -0.9 29 +18  1013.8  2.3  734  278           
18 24.04.17 290 (З) 10 км    10/10 1000 м 
[Sc]
+15.1 -3.6 27 +16  1016.5  2.7  736  281    +18.7       
21 24.04.17 290 (З) 10 км    4/4 1000 м 
[Cu med, cong]
+12.1 -2.7 35 +12  1018.7  2.2  737  284           
00 25.04.17 290 (З) 10 км    3/3 1000 м 
[Cu med, cong]
+10.7 -1.7 42 +10  1018.6  -0.1  736  286           
03 25.04.17 290 (З) 20000 м    3/0 средняя 
[Ac trans]
+9.3 -2.5 43 +8  1020  1.4  738  288           
06 25.04.17 320 (СЗ) 20000 м    8/8 1000 м средняя 
[Cu hum|Ac cast]
+13.4 -0.7 38 +12  1022.6  2.6  740  284           
09 25.04.17 320 (СЗ) 20000 м    8/8 1000 м средняя 
[Cu hum|Ac cast]
+15.6 -2.2 29 +16  1022.7  0.1  740  282           
12 25.04.17 320 (СЗ) 20000 м    10/10 1000 м 
[Sc]
+14.6 -3.6 28 +15  1023.8  1.1  740  283           
15 25.04.17 320 (СЗ) 20000 м    10/10 1000 м 
[Sc]
+14.6 -5.4 25 +15  1024.4  0.6  741  284           
18 25.04.17 270 (З) 4000 м    10/10 600 м 
[Frnb]
+12.1 -7.1 25 +12  1026.5  2.1  743  287    +17.2       
21 25.04.17 320 (СЗ) 4000 м    10/10 600 м 
[Frnb]
+9.3 -5 36 +9  1029  2.5  744  290           
00 26.04.17 270 (З) 4000 м    8/8 1000 м 
[Sc]
+8.7 -5 37 +9  1030.5  1.5  745  291           
03 26.04.17 360 (С) 20000 м    8/8 1000 м 
[Sc]
+7.4 -1.7 52 +8  1032  1.5  746  293           
06 26.04.17 290 (З) 20000 м    8/8 1000 м 
[Frnb]
+9 +1.3 58 +10  1034.4  2.4  748  291  +7.2  +8      сухая 
09 26.04.17 110 (В) 10-15  20000 м    5/5 1000 м 
[Cu med, cong]
+15.1 -3.6 27 +14  1034.1  -0.3  746  285           
12 26.04.17 110 (В) 14-20  20000 м    3/3 1000 м 
[Cu med, cong]
+15.4 -2.2 30 +14  1031.9  -2.2  746  285           
15 26.04.17 110 (В) 20000 м    4/4 1000 м 
[Cu med, cong]
+13.5 -1.7 35 +12  1031.5  -0.4  746  286           
18 26.04.17 160 (Ю) 10 км    8/0 средняя 
[Ac cuf]
+11.5 +1.3 49 +12  1032.7  1.2  747  288    +16.4       
21 26.04.17 320 (СЗ) 10 км    8/0 средняя 
[Ac As]
+8.1 +2.3 67 +9  1033.6  0.9  747  292           
00 27.04.17 290 (З) 10 км    9/0 средняя 
[As op]
+7.9 +2.7 70 +9  1033.5  -0.1  746  292           
03 27.04.17 тихо ()   10 км    9/0 средняя 
[Ac cast]
+7.5 +3.2 74 +8  1033.7  0.2  746  292           
06 27.04.17 320 (СЗ) 10 км    8/0 средняя 
[Ac und]
+12.5 +3 52 +14  1033.8  0.1  747  287           
09 27.04.17 140 (ЮВ) 10 км    3/3 1000 м средняя 
[Cu hum|Ac cast]
+15.5 -1.2 32 +16  1032.7  -1.1  746  284           
12 27.04.17 140 (ЮВ) 10 км    3/0 средняя 
[Ac cuf]
+17.7 -0.5 29 +18  1030.4  -2.3  744  282           
15 27.04.17 140 (ЮВ) 10 км    5/0 средняя, верхняя 
[Ac cuf|Cc]
+16 -0.9 31 +16  1028.7  -1.7  744  283           
Время (UTC), дата Ветер
(°,м/с) 
Видим.   Явления Облачность Т
(°С)
Тd
(°С)
f(%) Тe
(°С)
Pmin
(гПа)
dP
(гПа)
Po
(мм)
O2
(г/м3)
Тmin Tmax R s Состояние
почвы

Для получения пояснительной информации подведите курсор к названию столбца.

ПОГОДА в Гяндже - архив

Всё, что Вы хотите узнать о погоде в Гяндже - удобно и подробно!

Выберите нужную дату (начиная с 1 января 2015* года) и нажмите кнопку "Найти".
Будут отображены архивные сводки погоды по пункту Гянджа, начиная с указанной даты.


Отображать данные в формате CSV (для использования в таблицах Excel)


Внимание! Наш архив погоды предназначен исключительно для личного некоммерческого использования в познавательных целях. Если Вам необходимы официальные справки о состоянии погоды (для производственных, юридических, коммерческих и т.п. целей), обращайтесь в органы Росгидромета.

*Примечание: данная дата относится к архиву по метеостанциям СССР (Россия, СНГ, Балтия).
Архив по метеостанциям Зарубежной Европы и Азии (кроме Китая) хранится 10 дней, по другим регионам земного шара (Китай, Африка, Америка, Австралия, Океания) - 1 день.

Гянджа - район местоположения метеостанции


Название, широта, долгота, высота метеостанции:
Гянджа (город) 40.7°ш. 46.4°д. 311 м над ур. моря [Азербайджан]

Дополнительная информация

В oтличие oт бoльшинства пoгoдных сайтoв мы публикуем пoдрoбную метеoинфoрмацию в детальнoм прoфессиoнальнoм фoрмате.

Характеристики температуры и влажнoсти вoздуха измеряются на высoте 2 м в тени вдали oт зданий и деревьев.
Скoрoсть ветра измеряется на высoте 10 м (на урoвне рoста челoвека скoрoсть ветра ниже в 1.5-2 раза). Если метеoстанция нахoдится в гoрoде или в лесу, тo скoрoсть ветра занижена на 2-4 м/с пo сравнению с oткрытым местoм. Скoрoсть ветра над акватoриями крупных рек и oзёр, а также на вершинах хoлмoв на 2-5 м/с выше, чем в oбычных услoвиях.
Атмoсфернoе давление в разных тoчках местнoсти мoжет значительнo oтличаться oт давления на метеoстанции, в зависимoсти oт услoвий рельефа (при пoдъёме на 10 м давление пoнижается примернo на 1 мм рт.ст.).